Regional Weather Roundup
Issued by NWS Albany, NY

Home | Current Version | Previous Version | Text Only | Print | Product List | Glossary On
Versions: 1 2 3 4 5 6 7 8 9 10 11 12 13 14 15 16 17 18 19 20 21 22 23 24 25 26 27 28 29 30 31 32 33 34 35 36 37 38 39 40 41 42 43 44 45 46 47 48 49 50
000
ASUS41 KALY 130510
RWRALY

NEW YORK STATE HOURLY WEATHER ROUNDUP
NATIONAL WEATHER SERVICE ALBANY NY
1200 AM EST SAT FEB 13 2016

NOTE: "FAIR" INDICATES FEW OR NO CLOUDS BELOW 12,000 FEET WITH NO
SIGNIFICANT WEATHER AND/OR NO OBSTRUCTIONS TO VISIBILITY.

NYZ032-033-038>043-046>054-057>066-NYZ062>081-130600-
EAST


CITY           SKY/WX    TMP DP  RH WIND       PRES   REMARKS
ALBANY         CLOUDY    20   4  50 S7        29.86F WCI  11
GLENS FALLS    PTCLDY    15   1  53 S6        29.85S WCI   6
POUGHKEEPSIE   CLOUDY    22   8  55 SW7       29.90F WCI  13
NEWBURGH       CLOUDY    18  12  79 W12       29.89F WCI   5
MONTGOMERY     CLOUDY    19  11  70 SW10      29.88F WCI   7
WHITE PLAINS   CLEAR     20   5  52 W9        29.88F WCI   9
ISLIP          CLOUDY    21  12  68 W8        29.91F WCI  11
NEW YORK CITY  CLOUDY    24   8  50 W16       29.93F WCI  11
CENTRAL PARK   CLOUDY    23   7  50 CALM      29.94F
$$

NYZ005>009-017-018-044>046-055-056-130600-
CENTRAL


CITY           SKY/WX    TMP DP  RH WIND       PRES   REMARKS
FULTON         FLURRIES  19  10  68 N14       29.85R WCI   6
SYRACUSE       LGT SNOW  18  13  80 W12G22    29.82R VSB 1   WCI   5
ROME           MOCLDY    13   6  74 E6        29.83F WCI   4
ELMIRA         PTCLDY    15   9  76 SW9       29.84S WCI   3
BINGHAMTON     PTCLDY    12   8  84 SW8       29.76F WCI   0
MONTICELLO     CLOUDY    12  10  92 W3        29.81F
$$

NYZ026>034-041>043-130600-
NORTH


CITY           SKY/WX    TMP DP  RH WIND       PRES   REMARKS
WATERTOWN      CLOUDY    13   4  67 N9        29.87R WCI   1
FORT DRUM      NOT AVBL
MASSENA        CLOUDY    12   2  64 W17G23    29.86R WCI  -5
SARANAC LAKE   LGT SNOW  12   7  80 SW8       29.66S VSB 1   WCI   0
PLATTSBURGH    MOCLDY    10   3  73 S3        29.77F
$$

NYZ001>004-010>016-019>021-130600-
WEST


CITY           SKY/WX    TMP DP  RH WIND       PRES   REMARKS
NIAGARA FALLS  MIX PCPN  16   1  51 NW22G31   29.96R WCI  -2
BUFFALO        LGT SNOW  14   3  61 NW20G35   29.94R BLWGSNOWWCI  -3
DUNKIRK        CLOUDY    15   2  56 NW21G33   30.00R WCI  -2
JAMESTOWN      CLOUDY    10   5  79 N15G24    29.87R VSB 1/2 WCI  -6
WELLSVILLE     SNOW      13   9  84 NW9       29.78R VSB 1/2 WCI   1
ROCHESTER      CLOUDY    19   5  54 N14       29.89R WCI   6
PENN YAN       LGT SNOW  18  11  74 W15       29.82S WCI   4
$$

             KEY
       WCI = WIND CHILL INDEX
       VSB = VISIBILITY
       HX  = HEAT INDEX
$$



USA.gov is the U.S. government's official web portal to all federal, state and local government web resources and services.